Temp
70 70 69 64 63 64 64 64 66 67 67 67 67 67 66 66 65 65 65 65 64 63
63 64 64 62 64 64 65 65 66 66 67 67 67 67 65 65 65 65 63 62 61 60
65 64 63 64 64 65 64 66 66 66 66 66 67 67 67 66 65 62 62 62 60 60
62 63 64 65 65 65 66 66 66 67 66 66 66 67 66 65 64 64 62 60 60 60
64 65 65 65 65 65 65 66 67 68 68 67 68 66 65 63 64 62 60 60 60 60
65 65 64 65 65 66 66 68 68 67 67 68 66 64 65 66 63 61 61 61 60 61
66 66 66 66 67 66 67 66 66 67 67 68 67 67 66 64 61 61 61 62 61 61
66 66 67 67 67 66 67 67 68 67 67 67 66 65 62 62 61 60 60 61 62 62
66 67 67 67 65 66 65 67 67 65 65 61 60 51 54 60 60 60 60 59 60 60
67 66 66 67 66 66 64 62 60 58 58 57 55 47 49 53 60 59 59 58 58 59
68 67 67 67 65 63 61 59 58 57 58 57 55 47 48 51 59 58 58 58 59 59
69 67 66 65 62 60 59 58 57 58 57 57 56 47 47 55 57 57 58 59 60 61
69 68 65 63 60 59 59 59 58 56 58 54 56 45 47 54 57 57 57 57 56 50
68 64 62 60 62 61 59 57 56 56 57 58 55 52 46 49 58 58 56 56 55 52
MSLP
998.27 998.82 999.38 999.66 1000.06 1000.53 1000.93 1001.33 1001.59 1001.70 1002.38 1002.75 1003.22 1003.64 1004.26 1004.62 1005.30 1005.78 1006.35 1006.95 1007.17 1007.50
997.70 998.21 998.61 998.98 999.55 999.96 1000.35 1000.91 1001.18 1001.37 1002.12 1002.62 1002.98 1003.45 1004.04 1004.54 1005.18 1005.70 1006.21 1006.75 1007.07 1007.46
996.76 997.40 997.97 998.70 999.12 999.54 1000.14 1000.56 1000.56 1001.28 1001.98 1002.43 1002.90 1003.29 1003.89 1004.49 1005.17 1005.74 1006.24 1006.60 1007.07 1007.39
996.24 996.88 997.70 998.20 998.60 999.25 999.92 999.98 1000.48 1001.23 1001.87 1002.32 1002.85 1003.26 1003.81 1004.48 1005.15 1005.66 1006.20 1006.59 1006.95 1007.42
995.97 996.68 997.25 997.70 998.51 999.03 999.29 999.90 1000.38 1001.08 1001.65 1002.21 1002.72 1003.21 1003.91 1004.57 1005.12 1005.61 1006.10 1006.43 1006.95 1007.32
995.81 996.35 996.89 997.66 998.09 998.59 999.22 999.82 1000.39 1001.03 1001.59 1002.11 1002.74 1003.36 1003.78 1004.35 1005.07 1005.53 1005.82 1006.22 1006.66 1007.04
995.46 995.92 996.55 997.31 997.96 998.43 999.17 999.72 1000.48 1001.01 1001.50 1002.12 1002.77 1003.36 1003.99 1004.46 1004.95 1005.33 1005.58 1005.93 1006.33 1006.75
995.12 996.02 996.86 997.30 997.79 998.57 999.18 999.82 1000.37 1001.04 1001.75 1002.29 1002.95 1003.60 1004.11 1004.46 1004.94 1005.23 1005.61 1005.90 1006.22 1006.53
995.45 996.18 996.85 997.38 998.17 998.82 999.54 999.97 1000.54 1001.35 1002.09 1002.93 1003.55 1003.97 1003.96 1004.33 1004.83 1005.20 1005.52 1005.85 1006.19 1006.41
995.45 996.05 996.87 997.85 998.42 999.13 999.88 1000.40 1001.11 1001.97 1002.76 1003.47 1004.01 1004.26 1004.28 1004.40 1004.76 1005.18 1005.52 1005.83 1006.18 1006.48
995.43 996.04 997.17 998.03 998.78 999.58 1000.26 1001.09 1001.88 1002.68 1003.28 1003.80 1004.43 1004.42 1004.52 1004.59 1004.91 1005.34 1005.56 1005.73 1006.00 1006.32
995.61 996.76 997.85 998.57 999.51 1000.16 1000.90 1001.83 1002.43 1003.11 1003.59 1004.08 1004.53 1004.70 1004.71 1004.84 1005.30 1005.65 1005.79 1005.81 1006.04 1006.32
996.25 997.19 998.14 999.02 999.92 1000.60 1001.32 1002.30 1002.95 1003.63 1003.96 1004.40 1004.83 1005.13 1005.10 1005.24 1005.61 1005.93 1006.05 1006.27 1006.64 1006.73
996.66 997.53 998.52 999.47 1000.15 1001.03 1001.96 1002.77 1003.48 1004.06 1004.47 1004.78 1005.13 1005.62 1005.58 1005.60 1005.77 1005.96 1006.28 1006.66 1007.12 1007.45
Wind_Speed
12 8 8 8 6 6 5 5 8 8 7 7 7 6 5 4 4 6 5 6 5 3
8 8 9 8 7 5 5 5 7 7 7 7 6 7 7 5 6 6 5 5 6 3
10 8 7 7 7 7 6 7 9 9 7 7 7 7 7 5 6 7 4 4 6 4
8 8 8 8 7 8 8 9 9 8 7 7 7 6 7 6 6 7 6 5 6 6
8 10 9 8 8 9 8 8 10 9 8 7 7 7 7 7 6 7 7 6 6 6
11 11 10 9 9 9 10 9 8 8 8 9 8 7 7 7 7 6 7 7 7 6
11 10 10 11 11 10 9 10 9 8 8 9 8 7 6 6 6 6 6 6 6 6
9 9 10 11 11 10 10 9 9 9 7 7 7 5 7 6 6 6 6 5 5 5
11 11 11 12 12 11 9 10 10 8 8 7 4 4 8 8 6 5 6 5 5 4
13 13 13 12 13 12 9 9 8 8 7 6 5 4 8 8 5 5 5 5 5 4
14 14 12 12 11 11 8 9 8 7 7 7 3 4 8 8 5 4 4 5 6 6
14 14 12 12 10 9 10 8 6 6 7 8 5 5 8 8 5 5 4 4 5 4
13 13 12 12 10 6 8 9 7 7 7 7 5 4 7 6 4 6 4 5 4 8
12 11 11 8 11 11 10 9 8 9 7 7 5 4 5 6 3 5 4 4 4 3
Wind_Direction
207 203 205 198 187 190 181 193 174 175 172 160 155 142 149 139 140 156 163 171 164 167
191 180 194 193 178 179 162 166 165 144 149 157 146 150 154 147 151 163 162 168 160 144
191 190 177 163 172 167 154 165 144 144 150 146 147 145 145 133 146 146 159 149 160 143
179 169 168 168 156 161 162 151 145 150 146 145 149 148 132 150 147 148 154 156 159 163
163 158 156 147 156 153 141 142 147 151 147 147 147 140 146 146 153 154 162 162 155 177
155 152 147 148 146 142 139 141 138 138 145 147 145 150 147 155 163 166 169 170 171 180
152 149 144 142 141 133 140 139 148 149 141 143 150 146 149 151 159 175 178 180 180 182
131 134 144 137 132 138 137 138 136 128 113 115 128 147 156 161 169 169 180 186 187 207
131 135 139 126 130 130 126 125 122 106 114 122 118 163 174 160 164 174 184 186 203 174
131 130 124 131 126 120 119 104 105 106 116 116 119 137 150 137 141 165 176 167 160 165
127 113 113 117 118 114 109 117 116 111 112 109 100 107 131 137 130 135 167 163 166 154
124 125 125 118 122 112 111 106 103 106 110 117 94 86 125 111 108 103 102 142 147 174
131 132 126 127 121 105 107 107 106 102 105 102 104 97 124 117 114 114 100 75 84 93
128 122 121 110 119 116 108 103 96 107 107 107 98 69 98 116 110 125 114 115 109 91